カタログに戻る

COSMOS 2499 DEB

運用中PO
NORAD 49926·DEBRIS·🇷🇺 Russia

打ち上げ May 23, 2014 から Plesetsk Cosmodrome

Loading…

次のパス (今後24時間)

TLE

最新Source: Space-Track

元期: Sep 14, 2026, 02:45 UTC

1 49926U 14028H   26257.11465016  .00009764  00000-0  23447-1 0  9998
2 49926  82.3967 171.4489 0360563  70.7782 293.1973 13.01234608229516

AllMySatでCOSMOS 2499 DEBをリアルタイム追跡

Download on the App Store